QPF
0.00 0.00 0.00 0.00 0.00 0.01 0.01 0.01 0.00 0.00 0.00 0.00 0.00 0.00 0.00 0.00 0.00 0.00 0.00 0.00 0.00 0.01 0.03 0.05 0.07 0.07 0.05 0.02 0.00 0.00 0.00 0.01 0.02 0.05 0.07 0.06 0.06 0.05 0.06 0.08 0.12 0.22 0.26 0.28
0.00 0.00 0.00 0.00 0.00 0.01 0.01 0.00 0.00 0.00 0.00 0.00 0.00 0.00 0.00 0.00 0.00 0.00 0.00 0.00 0.00 0.00 0.01 0.02 0.04 0.06 0.06 0.03 0.01 0.00 0.01 0.04 0.06 0.11 0.18 0.19 0.17 0.12 0.10 0.11 0.13 0.16 0.18 0.19
0.00 0.00 0.00 0.00 0.00 0.00 0.00 0.00 0.00 0.00 0.00 0.00 0.00 0.00 0.00 0.00 0.00 0.00 0.00 0.00 0.00 0.00 0.01 0.01 0.02 0.03 0.04 0.03 0.01 0.00 0.02 0.10 0.18 0.23 0.30 0.33 0.28 0.21 0.16 0.13 0.15 0.16 0.17 0.16
0.00 0.00 0.00 0.00 0.00 0.00 0.00 0.00 0.00 0.00 0.00 0.00 0.00 0.00 0.00 0.00 0.00 0.00 0.00 0.00 0.00 0.00 0.00 0.01 0.01 0.01 0.02 0.01 0.01 0.03 0.09 0.24 0.40 0.44 0.42 0.34 0.25 0.21 0.19 0.19 0.18 0.16 0.14 0.13
0.00 0.00 0.00 0.00 0.00 0.00 0.00 0.00 0.00 0.00 0.00 0.00 0.00 0.00 0.00 0.00 0.00 0.00 0.00 0.00 0.00 0.00 0.01 0.01 0.01 0.01 0.01 0.02 0.04 0.10 0.25 0.45 0.61 0.63 0.52 0.40 0.29 0.23 0.21 0.19 0.19 0.16 0.13 0.12
0.00 0.00 0.00 0.00 0.00 0.00 0.00 0.00 0.00 0.00 0.00 0.00 0.00 0.00 0.01 0.00 0.00 0.00 0.00 0.00 0.00 0.00 0.01 0.02 0.04 0.05 0.07 0.09 0.12 0.21 0.33 0.52 0.64 0.71 0.66 0.57 0.47 0.35 0.25 0.20 0.17 0.13 0.10 0.09
0.00 0.00 0.00 0.00 0.00 0.00 0.00 0.00 0.00 0.00 0.01 0.01 0.01 0.01 0.01 0.00 0.00 0.00 0.00 0.00 0.00 0.01 0.02 0.04 0.06 0.07 0.09 0.13 0.19 0.24 0.32 0.45 0.61 0.68 0.68 0.64 0.56 0.43 0.31 0.24 0.18 0.12 0.09 0.07
0.00 0.00 0.00 0.00 0.00 0.00 0.00 0.00 0.01 0.01 0.01 0.02 0.03 0.05 0.03 0.01 0.00 0.00 0.01 0.01 0.01 0.02 0.04 0.04 0.05 0.06 0.08 0.12 0.17 0.21 0.30 0.40 0.48 0.51 0.51 0.48 0.47 0.41 0.32 0.23 0.17 0.12 0.09 0.07
0.00 0.00 0.00 0.00 0.00 0.00 0.00 0.00 0.01 0.03 0.01 0.01 0.03 0.08 0.06 0.02 0.01 0.01 0.02 0.02 0.03 0.03 0.03 0.03 0.04 0.05 0.08 0.11 0.19 0.26 0.31 0.33 0.35 0.37 0.39 0.41 0.39 0.34 0.26 0.18 0.12 0.09 0.06 0.03
0.00 0.00 0.00 0.00 0.00 0.00 0.00 0.00 0.02 0.04 0.04 0.04 0.05 0.07 0.06 0.05 0.04 0.03 0.04 0.06 0.06 0.06 0.03 0.02 0.05 0.07 0.10 0.11 0.13 0.16 0.20 0.25 0.29 0.33 0.36 0.35 0.30 0.24 0.18 0.14 0.10 0.07 0.04 0.02
0.00 0.00 0.00 0.00 0.00 0.00 0.01 0.02 0.02 0.03 0.04 0.08 0.17 0.19 0.10 0.06 0.04 0.04 0.05 0.07 0.07 0.07 0.07 0.05 0.07 0.10 0.14 0.15 0.12 0.12 0.14 0.17 0.23 0.26 0.29 0.26 0.21 0.17 0.14 0.12 0.09 0.06 0.03 0.02
0.00 0.00 0.00 0.00 0.00 0.01 0.03 0.05 0.04 0.07 0.12 0.15 0.23 0.22 0.13 0.10 0.09 0.07 0.08 0.11 0.11 0.10 0.10 0.07 0.09 0.15 0.17 0.15 0.12 0.12 0.15 0.19 0.21 0.21 0.21 0.18 0.16 0.13 0.12 0.10 0.07 0.04 0.02 0.01
0.00 0.00 0.00 0.00 0.01 0.02 0.04 0.04 0.04 0.08 0.13 0.14 0.20 0.18 0.11 0.13 0.15 0.15 0.16 0.15 0.13 0.11 0.09 0.08 0.09 0.15 0.15 0.13 0.12 0.12 0.14 0.19 0.20 0.17 0.17 0.16 0.15 0.14 0.14 0.09 0.04 0.02 0.01 0.01
0.00 0.00 0.00 0.00 0.01 0.02 0.03 0.03 0.03 0.05 0.10 0.13 0.16 0.18 0.16 0.16 0.17 0.18 0.18 0.15 0.11 0.09 0.09 0.09 0.10 0.11 0.12 0.12 0.11 0.12 0.13 0.17 0.19 0.18 0.18 0.15 0.14 0.12 0.09 0.05 0.03 0.02 0.02 0.02
0.00 0.00 0.00 0.00 0.00 0.00 0.00 0.01 0.01 0.02 0.05 0.13 0.16 0.19 0.24 0.24 0.20 0.15 0.14 0.12 0.09 0.10 0.10 0.09 0.08 0.09 0.09 0.10 0.12 0.13 0.14 0.16 0.17 0.16 0.14 0.10 0.08 0.06 0.05 0.04 0.03 0.02 0.03 0.04
0.00 0.00 0.00 0.00 0.00 0.00 0.00 0.00 0.01 0.02 0.06 0.10 0.13 0.17 0.20 0.19 0.14 0.09 0.06 0.06 0.07 0.06 0.05 0.04 0.03 0.03 0.03 0.04 0.05 0.07 0.09 0.11 0.13 0.14 0.11 0.09 0.07 0.06 0.05 0.04 0.03 0.03 0.03 0.03
0.00 0.00 0.00 0.00 0.00 0.00 0.00 0.00 0.01 0.02 0.03 0.06 0.11 0.15 0.14 0.12 0.07 0.03 0.02 0.02 0.02 0.01 0.01 0.00 0.00 0.00 0.00 0.01 0.01 0.01 0.01 0.02 0.03 0.04 0.04 0.04 0.04 0.03 0.03 0.02 0.02 0.02 0.02 0.02
0.00 0.00 0.00 0.00 0.00 0.00 0.00 0.00 0.00 0.01 0.02 0.04 0.05 0.05 0.04 0.04 0.03 0.02 0.00 0.00 0.00 0.00 0.00 0.00 0.00 0.00 0.00 0.00 0.00 0.00 0.00 0.00 0.00 0.00 0.00 0.01 0.01 0.00 0.00 0.00 0.00 0.00 0.00 0.00
0.00 0.00 0.00 0.00 0.00 0.00 0.00 0.00 0.00 0.00 0.01 0.01 0.02 0.01 0.01 0.01 0.01 0.01 0.00 0.00 0.00 0.00 0.00 0.00 0.00 0.00 0.00 0.00 0.00 0.00 0.00 0.00 0.00 0.00 0.00 0.00 0.00 0.00 0.00 0.00 0.00 0.00 0.00 0.00
0.00 0.00 0.00 0.00 0.00 0.00 0.00 0.00 0.00 0.00 0.00 0.00 0.00 0.00 0.00 0.00 0.00 0.00 0.00 0.00 0.00 0.00 0.00 0.00 0.00 0.00 0.00 0.00 0.00 0.00 0.00 0.00 0.00 0.00 0.00 0.00 0.00 0.00 0.00 0.00 0.00 0.00 0.00 0.00
0.00 0.00 0.00 0.00 0.00 0.00 0.00 0.00 0.00 0.00 0.00 0.00 0.00 0.00 0.00 0.00 0.00 0.00 0.00 0.00 0.00 0.00 0.00 0.00 0.00 0.00 0.00 0.00 0.00 0.00 0.00 0.00 0.00 0.00 0.00 0.00 0.00 0.00 0.00 0.00 0.00 0.00 0.00 0.00
0.00 0.00 0.00 0.00 0.00 0.00 0.00 0.00 0.00 0.00 0.00 0.00 0.00 0.00 0.00 0.00 0.00 0.00 0.00 0.00 0.00 0.00 0.00 0.00 0.00 0.00 0.00 0.00 0.00 0.00 0.00 0.00 0.00 0.00 0.00 0.00 0.00 0.00 0.00 0.00 0.00 0.00 0.00 0.00
0.00 0.00 0.00 0.00 0.00 0.00 0.00 0.00 0.00 0.00 0.00 0.00 0.00 0.00 0.00 0.00 0.00 0.00 0.00 0.00 0.00 0.00 0.00 0.00 0.00 0.00 0.00 0.00 0.00 0.00 0.00 0.00 0.00 0.00 0.00 0.00 0.00 0.00 0.00 0.00 0.00 0.00 0.00 0.00
0.00 0.00 0.00 0.00 0.00 0.00 0.00 0.00 0.00 0.00 0.00 0.00 0.00 0.00 0.00 0.00 0.00 0.00 0.00 0.00 0.00 0.00 0.00 0.00 0.00 0.00 0.00 0.00 0.00 0.00 0.00 0.00 0.00 0.00 0.00 0.00 0.00 0.00 0.00 0.00 0.00 0.00 0.00 0.00
0.00 0.00 0.00 0.00 0.00 0.00 0.00 0.00 0.00 0.00 0.00 0.00 0.00 0.00 0.00 0.00 0.00 0.00 0.00 0.00 0.00 0.00 0.00 0.00 0.00 0.00 0.00 0.00 0.00 0.00 0.00 0.00 0.00 0.00 0.00 0.00 0.00 0.00 0.00 0.00 0.00 0.00 0.00 0.00
0.00 0.00 0.00 0.00 0.00 0.00 0.00 0.00 0.00 0.00 0.00 0.00 0.00 0.00 0.00 0.00 0.00 0.00 0.00 0.00 0.00 0.00 0.00 0.00 0.00 0.00 0.00 0.00 0.00 0.00 0.00 0.00 0.00 0.00 0.00 0.00 0.00 0.00 0.00 0.00 0.00 0.00 0.00 0.00
MSLP
1013.18 1013.79 1014.33 1014.72 1014.96 1015.04 1015.01 1014.90 1014.78 1014.70 1014.68 1014.72 1014.82 1014.92 1014.98 1014.96 1014.81 1014.52 1014.08 1013.51 1012.83 1012.09 1011.33 1010.59 1009.93 1009.38 1008.97 1008.72 1008.66 1008.77 1009.04 1009.46 1009.98 1010.56 1011.16 1011.72 1012.23 1012.66 1013.01 1013.29 1013.52 1013.72 1013.92 1014.14
1014.05 1014.64 1015.13 1015.46 1015.62 1015.62 1015.51 1015.33 1015.16 1015.03 1014.98 1015.02 1015.12 1015.24 1015.34 1015.36 1015.26 1015.00 1014.59 1014.04 1013.36 1012.60 1011.79 1010.99 1010.25 1009.60 1009.08 1008.73 1008.56 1008.58 1008.79 1009.17 1009.66 1010.23 1010.84 1011.42 1011.96 1012.42 1012.80 1013.11 1013.35 1013.57 1013.77 1013.97
1014.98 1015.53 1015.96 1016.22 1016.30 1016.22 1016.03 1015.79 1015.56 1015.39 1015.31 1015.32 1015.40 1015.52 1015.62 1015.65 1015.57 1015.35 1014.97 1014.45 1013.79 1013.03 1012.22 1011.39 1010.60 1009.89 1009.30 1008.88 1008.63 1008.59 1008.74 1009.07 1009.54 1010.09 1010.70 1011.29 1011.84 1012.31 1012.70 1013.01 1013.26 1013.46 1013.64 1013.83
1015.96 1016.45 1016.80 1016.99 1017.00 1016.85 1016.60 1016.31 1016.03 1015.82 1015.70 1015.67 1015.72 1015.81 1015.88 1015.90 1015.82 1015.60 1015.24 1014.74 1014.12 1013.39 1012.59 1011.78 1010.98 1010.26 1009.64 1009.18 1008.90 1008.82 1008.94 1009.23 1009.67 1010.21 1010.79 1011.38 1011.91 1012.38 1012.75 1013.05 1013.27 1013.44 1013.59 1013.73
1016.96 1017.38 1017.66 1017.77 1017.71 1017.52 1017.23 1016.91 1016.61 1016.37 1016.22 1016.15 1016.15 1016.17 1016.20 1016.17 1016.05 1015.82 1015.46 1014.98 1014.38 1013.69 1012.94 1012.16 1011.41 1010.71 1010.11 1009.66 1009.37 1009.28 1009.39 1009.66 1010.08 1010.59 1011.15 1011.70 1012.21 1012.64 1012.98 1013.23 1013.41 1013.53 1013.62 1013.71
1017.96 1018.29 1018.49 1018.53 1018.43 1018.21 1017.92 1017.60 1017.30 1017.05 1016.88 1016.77 1016.71 1016.67 1016.62 1016.52 1016.34 1016.06 1015.69 1015.21 1014.64 1013.99 1013.30 1012.59 1011.89 1011.25 1010.71 1010.29 1010.03 1009.96 1010.06 1010.33 1010.72 1011.20 1011.72 1012.22 1012.67 1013.04 1013.32 1013.51 1013.62 1013.68 1013.71 1013.74
1018.91 1019.16 1019.29 1019.28 1019.16 1018.93 1018.66 1018.37 1018.10 1017.88 1017.70 1017.57 1017.45 1017.34 1017.20 1017.00 1016.74 1016.40 1015.98 1015.50 1014.94 1014.34 1013.71 1013.07 1012.45 1011.89 1011.41 1011.05 1010.84 1010.78 1010.89 1011.14 1011.51 1011.94 1012.40 1012.84 1013.22 1013.51 1013.71 1013.82 1013.85 1013.84 1013.81 1013.77
1019.78 1019.95 1020.02 1019.98 1019.85 1019.66 1019.44 1019.21 1019.01 1018.82 1018.66 1018.52 1018.36 1018.17 1017.94 1017.65 1017.29 1016.87 1016.40 1015.89 1015.34 1014.77 1014.19 1013.62 1013.09 1012.60 1012.19 1011.89 1011.72 1011.68 1011.79 1012.02 1012.34 1012.71 1013.09 1013.44 1013.72 1013.92 1014.03 1014.05 1014.01 1013.93 1013.84 1013.77
1020.52 1020.62 1020.65 1020.60 1020.50 1020.36 1020.22 1020.09 1019.97 1019.85 1019.73 1019.59 1019.40 1019.15 1018.83 1018.44 1017.98 1017.49 1016.96 1016.41 1015.85 1015.30 1014.77 1014.25 1013.78 1013.35 1013.01 1012.75 1012.60 1012.57 1012.65 1012.84 1013.09 1013.38 1013.67 1013.91 1014.09 1014.19 1014.20 1014.14 1014.03 1013.90 1013.77 1013.67
1021.10 1021.16 1021.16 1021.12 1021.07 1021.02 1020.98 1020.96 1020.94 1020.91 1020.84 1020.72 1020.51 1020.21 1019.82 1019.34 1018.80 1018.22 1017.62 1017.03 1016.46 1015.91 1015.40 1014.93 1014.49 1014.11 1013.79 1013.56 1013.41 1013.36 1013.40 1013.52 1013.69 1013.88 1014.06 1014.20 1014.27 1014.26 1014.18 1014.05 1013.89 1013.73 1013.59 1013.49
1021.49 1021.53 1021.53 1021.53 1021.55 1021.59 1021.67 1021.77 1021.86 1021.93 1021.92 1021.83 1021.61 1021.28 1020.83 1020.28 1019.66 1019.01 1018.36 1017.72 1017.13 1016.57 1016.06 1015.60 1015.18 1014.82 1014.51 1014.26 1014.09 1014.00 1013.98 1014.02 1014.09 1014.18 1014.25 1014.28 1014.24 1014.15 1014.00 1013.82 1013.62 1013.45 1013.32 1013.24
1021.72 1021.76 1021.78 1021.84 1021.93 1022.07 1022.26 1022.48 1022.68 1022.84 1022.90 1022.83 1022.62 1022.26 1021.77 1021.16 1020.49 1019.78 1019.08 1018.41 1017.79 1017.22 1016.70 1016.23 1015.81 1015.43 1015.11 1014.84 1014.63 1014.48 1014.39 1014.35 1014.33 1014.32 1014.29 1014.22 1014.10 1013.94 1013.74 1013.52 1013.32 1013.15 1013.04 1012.99
1021.84 1021.88 1021.94 1022.05 1022.22 1022.45 1022.74 1023.05 1023.35 1023.57 1023.68 1023.65 1023.44 1023.07 1022.55 1021.91 1021.20 1020.46 1019.72 1019.02 1018.38 1017.78 1017.25 1016.77 1016.34 1015.94 1015.59 1015.29 1015.04 1014.84 1014.68 1014.57 1014.47 1014.38 1014.27 1014.13 1013.95 1013.74 1013.51 1013.28 1013.08 1012.93 1012.84 1012.83
1021.89 1021.95 1022.04 1022.20 1022.43 1022.74 1023.09 1023.47 1023.82 1024.09 1024.23 1024.20 1024.01 1023.63 1023.09 1022.44 1021.72 1020.96 1020.21 1019.50 1018.84 1018.24 1017.70 1017.21 1016.76 1016.34 1015.97 1015.64 1015.35 1015.11 1014.92 1014.75 1014.60 1014.46 1014.29 1014.11 1013.90 1013.66 1013.42 1013.20 1013.01 1012.88 1012.81 1012.82
1021.93 1022.02 1022.14 1022.33 1022.59 1022.93 1023.32 1023.72 1024.09 1024.37 1024.51 1024.48 1024.28 1023.90 1023.36 1022.72 1022.00 1021.25 1020.52 1019.82 1019.17 1018.57 1018.03 1017.53 1017.08 1016.66 1016.28 1015.93 1015.63 1015.37 1015.16 1014.97 1014.79 1014.62 1014.44 1014.24 1014.02 1013.78 1013.54 1013.33 1013.16 1013.05 1013.00 1013.01
1022.02 1022.11 1022.24 1022.44 1022.72 1023.05 1023.43 1023.82 1024.16 1024.41 1024.53 1024.48 1024.27 1023.89 1023.36 1022.73 1022.04 1021.34 1020.63 1019.97 1019.35 1018.78 1018.25 1017.77 1017.33 1016.91 1016.54 1016.20 1015.91 1015.66 1015.45 1015.26 1015.09 1014.93 1014.76 1014.56 1014.35 1014.12 1013.91 1013.71 1013.55 1013.45 1013.40 1013.40
1022.16 1022.24 1022.37 1022.56 1022.80 1023.11 1023.44 1023.77 1024.06 1024.26 1024.32 1024.25 1024.02 1023.64 1023.14 1022.55 1021.91 1021.25 1020.60 1019.99 1019.42 1018.89 1018.40 1017.95 1017.53 1017.14 1016.79 1016.48 1016.21 1015.98 1015.79 1015.64 1015.50 1015.36 1015.21 1015.04 1014.85 1014.65 1014.46 1014.28 1014.13 1014.02 1013.96 1013.94
1022.31 1022.39 1022.50 1022.65 1022.85 1023.09 1023.36 1023.61 1023.82 1023.95 1023.97 1023.85 1023.61 1023.24 1022.77 1022.23 1021.65 1021.06 1020.49 1019.94 1019.43 1018.96 1018.51 1018.10 1017.71 1017.36 1017.04 1016.76 1016.52 1016.33 1016.18 1016.06 1015.96 1015.85 1015.74 1015.61 1015.45 1015.28 1015.11 1014.95 1014.80 1014.70 1014.62 1014.57
1022.43 1022.49 1022.58 1022.69 1022.84 1023.02 1023.21 1023.38 1023.51 1023.57 1023.53 1023.39 1023.14 1022.79 1022.36 1021.88 1021.37 1020.86 1020.36 1019.89 1019.44 1019.02 1018.62 1018.24 1017.89 1017.57 1017.28 1017.03 1016.82 1016.66 1016.54 1016.46 1016.40 1016.33 1016.26 1016.16 1016.04 1015.90 1015.76 1015.61 1015.48 1015.37 1015.28 1015.21
1022.45 1022.50 1022.57 1022.65 1022.74 1022.86 1022.99 1023.10 1023.17 1023.17 1023.10 1022.95 1022.71 1022.39 1022.01 1021.59 1021.15 1020.71 1020.28 1019.87 1019.48 1019.10 1018.74 1018.40 1018.07 1017.76 1017.49 1017.26 1017.07 1016.93 1016.84 1016.78 1016.74 1016.71 1016.66 1016.60 1016.52 1016.42 1016.30 1016.18 1016.07 1015.96 1015.87 1015.78
1022.32 1022.36 1022.41 1022.47 1022.54 1022.63 1022.71 1022.78 1022.82 1022.80 1022.73 1022.58 1022.36 1022.08 1021.76 1021.40 1021.03 1020.66 1020.29 1019.93 1019.58 1019.23 1018.89 1018.55 1018.23 1017.93 1017.66 1017.42 1017.24 1017.10 1017.02 1016.97 1016.95 1016.93 1016.92 1016.89 1016.84 1016.77 1016.69 1016.60 1016.52 1016.43 1016.35 1016.26
1022.02 1022.06 1022.10 1022.15 1022.22 1022.30 1022.38 1022.45 1022.48 1022.48 1022.42 1022.30 1022.13 1021.90 1021.64 1021.34 1021.03 1020.71 1020.38 1020.05 1019.72 1019.39 1019.05 1018.71 1018.38 1018.06 1017.77 1017.52 1017.31 1017.16 1017.07 1017.02 1017.00 1016.99 1017.00 1017.00 1016.98 1016.96 1016.92 1016.87 1016.82 1016.77 1016.71 1016.64
1021.56 1021.59 1021.64 1021.70 1021.78 1021.88 1021.99 1022.09 1022.16 1022.20 1022.18 1022.12 1022.00 1021.83 1021.62 1021.38 1021.11 1020.83 1020.53 1020.22 1019.90 1019.56 1019.21 1018.85 1018.49 1018.14 1017.82 1017.54 1017.31 1017.14 1017.02 1016.95 1016.92 1016.92 1016.95 1016.97 1016.99 1017.01 1017.02 1017.02 1017.01 1017.00 1016.97 1016.92
1020.99 1021.02 1021.07 1021.14 1021.26 1021.39 1021.54 1021.70 1021.83 1021.93 1021.99 1021.99 1021.93 1021.83 1021.67 1021.48 1021.25 1020.99 1020.72 1020.41 1020.09 1019.73 1019.36 1018.97 1018.59 1018.21 1017.85 1017.53 1017.26 1017.05 1016.91 1016.82 1016.78 1016.78 1016.81 1016.86 1016.91 1016.97 1017.03 1017.08 1017.13 1017.16 1017.17 1017.16
1020.38 1020.38 1020.42 1020.52 1020.67 1020.85 1021.07 1021.29 1021.49 1021.67 1021.80 1021.87 1021.89 1021.84 1021.73 1021.58 1021.38 1021.15 1020.88 1020.58 1020.25 1019.88 1019.49 1019.09 1018.67 1018.26 1017.87 1017.51 1017.21 1016.97 1016.79 1016.68 1016.63 1016.63 1016.67 1016.74 1016.83 1016.92 1017.03 1017.12 1017.22 1017.29 1017.34 1017.35
1019.76 1019.73 1019.77 1019.89 1020.07 1020.30 1020.58 1020.86 1021.15 1021.39 1021.59 1021.73 1021.81 1021.81 1021.76 1021.64 1021.47 1021.26 1021.00 1020.71 1020.38 1020.01 1019.61 1019.19 1018.76 1018.33 1017.91 1017.53 1017.20 1016.93 1016.73 1016.60 1016.54 1016.53 1016.58 1016.66 1016.78 1016.91 1017.04 1017.18 1017.31 1017.42 1017.50 1017.54
Thickness
5764 5756 5742 5743 5746 5743 5740 5735 5732 5736 5742 5739 5737 5734 5733 5737 5739 5741 5746 5751 5757 5762 5772 5780 5783 5787 5789 5792 5795 5795 5790 5787 5782 5775 5769 5764 5761 5761 5759 5757 5754 5751 5749 5748
5750 5735 5737 5740 5737 5734 5728 5721 5721 5725 5728 5727 5726 5725 5725 5724 5724 5726 5731 5737 5743 5749 5759 5768 5775 5780 5784 5786 5790 5792 5789 5785 5780 5774 5769 5764 5760 5756 5754 5751 5748 5745 5744 5743
5730 5724 5732 5728 5721 5717 5712 5706 5704 5704 5712 5715 5711 5712 5712 5714 5717 5718 5721 5725 5730 5734 5742 5752 5761 5768 5775 5779 5782 5787 5788 5782 5775 5769 5764 5759 5753 5748 5745 5743 5741 5740 5738 5738
5722 5719 5717 5711 5701 5699 5696 5694 5692 5691 5691 5697 5697 5690 5704 5702 5703 5705 5708 5713 5717 5722 5730 5738 5746 5753 5760 5768 5775 5779 5780 5775 5768 5761 5755 5750 5743 5737 5737 5737 5737 5735 5733 5732
5704 5701 5696 5686 5680 5679 5677 5680 5680 5680 5680 5680 5688 5680 5694 5692 5686 5688 5693 5699 5706 5711 5718 5725 5732 5739 5745 5752 5760 5765 5766 5763 5757 5751 5747 5741 5732 5727 5726 5727 5728 5728 5726 5726
5695 5691 5680 5669 5670 5665 5665 5666 5669 5668 5666 5660 5680 5676 5670 5664 5663 5671 5679 5687 5694 5700 5707 5714 5721 5727 5731 5736 5742 5746 5747 5745 5743 5739 5738 5734 5724 5716 5712 5712 5715 5716 5717 5719
5683 5674 5668 5662 5653 5652 5647 5639 5638 5639 5643 5651 5665 5660 5638 5644 5651 5657 5664 5673 5682 5690 5696 5702 5707 5712 5715 5718 5723 5728 5730 5729 5728 5726 5726 5723 5716 5708 5703 5702 5703 5704 5706 5709
5669 5660 5652 5647 5636 5629 5629 5622 5609 5607 5618 5628 5639 5632 5619 5634 5642 5648 5655 5663 5671 5679 5686 5691 5694 5698 5700 5704 5707 5711 5714 5714 5714 5713 5711 5711 5707 5699 5695 5695 5694 5694 5697 5701
5663 5652 5649 5641 5634 5625 5617 5612 5606 5599 5608 5611 5627 5618 5617 5627 5631 5637 5644 5652 5659 5668 5676 5681 5683 5685 5687 5690 5693 5697 5699 5701 5701 5701 5698 5697 5694 5689 5687 5687 5688 5688 5690 5694
5663 5650 5642 5638 5633 5620 5609 5602 5600 5594 5593 5601 5614 5606 5598 5607 5613 5622 5631 5640 5649 5660 5668 5672 5673 5674 5676 5679 5682 5685 5687 5688 5690 5690 5687 5686 5684 5681 5679 5680 5681 5683 5687 5690
5663 5653 5640 5633 5616 5601 5598 5595 5592 5595 5592 5587 5590 5589 5591 5593 5601 5609 5619 5630 5640 5652 5660 5662 5663 5664 5666 5669 5671 5673 5675 5677 5679 5679 5678 5677 5677 5676 5675 5676 5679 5681 5685 5688
5658 5655 5641 5627 5620 5612 5599 5593 5590 5585 5586 5587 5584 5583 5589 5591 5598 5605 5615 5625 5634 5645 5652 5655 5656 5658 5660 5662 5663 5665 5667 5669 5670 5671 5672 5671 5672 5673 5674 5676 5678 5681 5684 5687
5659 5652 5644 5635 5623 5614 5603 5600 5600 5594 5588 5585 5580 5580 5590 5592 5597 5603 5611 5621 5630 5639 5645 5648 5650 5652 5654 5657 5659 5661 5663 5665 5666 5668 5668 5668 5670 5672 5674 5676 5678 5680 5683 5684
5661 5652 5641 5623 5610 5605 5601 5600 5601 5597 5586 5581 5578 5580 5585 5589 5594 5602 5610 5618 5627 5634 5639 5641 5643 5646 5650 5652 5655 5658 5660 5663 5665 5665 5666 5666 5668 5669 5671 5674 5675 5677 5679 5680
5664 5650 5638 5627 5620 5615 5607 5602 5599 5593 5585 5581 5581 5581 5581 5586 5592 5601 5608 5617 5625 5630 5634 5637 5640 5643 5647 5649 5651 5653 5655 5658 5661 5662 5662 5663 5665 5667 5669 5670 5671 5673 5673 5674
5661 5650 5640 5629 5623 5619 5614 5607 5604 5597 5591 5589 5591 5587 5589 5595 5601 5606 5611 5618 5624 5628 5633 5636 5639 5642 5645 5648 5650 5651 5652 5654 5656 5657 5657 5659 5661 5662 5663 5664 5665 5666 5665 5665
5659 5653 5644 5638 5628 5622 5619 5611 5605 5600 5596 5592 5591 5591 5598 5602 5607 5611 5615 5621 5626 5630 5633 5637 5639 5642 5644 5647 5649 5650 5651 5653 5654 5654 5654 5655 5656 5656 5656 5657 5657 5657 5657 5656
5661 5654 5648 5641 5633 5629 5622 5619 5611 5607 5605 5603 5603 5606 5610 5613 5616 5621 5623 5626 5629 5633 5636 5638 5641 5643 5646 5647 5649 5650 5650 5651 5650 5650 5649 5649 5650 5649 5649 5648 5648 5648 5648 5646
5663 5655 5649 5643 5638 5631 5623 5622 5618 5616 5615 5615 5613 5617 5622 5627 5632 5632 5631 5631 5633 5635 5638 5641 5644 5646 5647 5647 5649 5650 5649 5648 5646 5644 5644 5644 5644 5642 5641 5640 5639 5638 5638 5636
5662 5659 5654 5646 5642 5635 5633 5629 5624 5620 5623 5625 5623 5624 5627 5635 5636 5632 5632 5634 5637 5638 5641 5643 5646 5648 5648 5647 5647 5648 5646 5644 5641 5639 5639 5638 5636 5635 5634 5633 5632 5631 5629 5627
5669 5662 5657 5652 5648 5645 5638 5631 5626 5623 5629 5631 5630 5629 5630 5631 5631 5632 5635 5638 5640 5641 5642 5645 5647 5647 5647 5647 5647 5647 5645 5641 5639 5637 5635 5634 5632 5631 5629 5628 5626 5625 5623 5621
5678 5670 5663 5656 5652 5644 5640 5633 5631 5638 5637 5635 5634 5634 5632 5633 5635 5638 5639 5641 5642 5643 5645 5645 5647 5648 5649 5648 5647 5646 5643 5641 5639 5636 5634 5632 5630 5628 5626 5624 5621 5619 5617 5616
5680 5678 5673 5666 5661 5654 5648 5645 5642 5639 5638 5637 5637 5636 5635 5636 5638 5640 5642 5643 5644 5645 5646 5646 5647 5648 5651 5652 5649 5647 5645 5643 5641 5638 5635 5633 5631 5628 5625 5622 5619 5616 5613 5611
5689 5679 5673 5669 5666 5658 5653 5649 5645 5642 5640 5640 5639 5638 5638 5638 5641 5642 5643 5644 5645 5646 5646 5647 5649 5651 5653 5654 5653 5652 5650 5647 5645 5642 5638 5636 5634 5631 5627 5620 5616 5613 5610 5606
5696 5683 5680 5678 5675 5666 5659 5655 5651 5646 5644 5642 5641 5640 5640 5640 5641 5642 5645 5646 5646 5647 5648 5650 5650 5651 5653 5657 5657 5657 5655 5653 5650 5647 5642 5640 5636 5632 5628 5621 5614 5610 5605 5599
5703 5695 5691 5691 5689 5681 5674 5667 5658 5650 5646 5645 5643 5642 5642 5642 5641 5643 5645 5645 5646 5648 5650 5652 5653 5653 5657 5660 5661 5660 5658 5657 5655 5652 5646 5642 5638 5634 5630 5626 5619 5606 5602 5595